GPS BIIRM-2 (PRN 31)

Last updated on Sun Apr 12 2026 00:03:23 GMT+0000 (Coordinated Universal Time)

1 29486U 06042A 26100.75495159 .00000031 00000+0 00000+0 0 9997 2 29486 54.7003 154.0167 0106206 53.2679 355.1219 2.00573635143040
UTC large
Height (km)
Speed (km/s)
/
Latitude / Longitude
Inclination (degrees)
Orbital Period (minutes)
Azimuth
Elevation
Range (km)
Doppler Factor

Next 0 passes for location: London (51.5072 / 0.1276)

Sorry there are no passes over London.
GPS BIIRM-2 (PRN 31)